Location: Lugano
(46.0000°N, 8.9670°E)
Time: 16:06:14
(UTC+02:00)

Envisat - Pass Details

Date: 13 March 2026
Orbit: 761 x 762 km, 98.4° (Epoch: 19 April)

Event Time Altitude Azimuth Distance (km) Brightness Sun altitude
Rises 03:20:14 0° 12° (NNE) 3,236 6.9 -33.8°
Reaches altitude 10° 03:22:32 10° 11° (N) 2,305 6.0 -33.4°
Enters shadow 03:25:04 30° 7° (N) 1,347 4.5 -33.1°
